Starlink 4141

operational
NORAD ID: 53138 Int'l Des: 2022-083 Owner: SPXS Country: US Constellation: starlink
LEOCIRCULAR

Starlink 4141について

説明を読み込み中...

リアルタイム位置

3D地球を読み込み中...

次回通過

高度履歴

Altitude vs Time

uPlot chart will show altitude changes over time

軌道要素

1 53138U 22083G 25352.59178137 .00000000 00000-0 18113-4 0 9991
2 53138 53.2159 173.3650 0001376 91.3116 268.8034 15.08837097189816
Epoch: Dec 18, 2025 • Age: 7 hours

現在のステータス

高度 545.0 km
速度 7.60 km/s
衛星直下点 51.63°N, 159.27°W
打ち上げ日 Jul 17, 2022
運用期間 3.4 years
タイプ internet

技術仕様

分類 Payload
質量 297.00 kg
乾燥質量 275.00 kg
総質量 297.00 kg
長さ 0.20 m
直径 2.80 m
スパン 9.00 m
形状 Box + pan
製造者 SPXS
バスタイプ Starlink
フェーズステータス In Orbit
所有者/国 SPXS/US

大規模コンステレーション

Loading constellations...